Location: *
(46.1333°S, 161.2167°W)
Time: 10:06:29
(UTC+00:00)

Cosmos 2298 Rocket - Pass Details

Date: 01 November 2020
Orbit: 777 x 783 km, 74.0° (Epoch: 25 November)

Event Time Altitude Azimuth Distance (km) Brightness Sun altitude
Exits shadow 11:41:45 29° 252° (WSW) 1,418 5.3 -27.0°
Maximum altitude 11:42:30 30° 237° (WSW) 1,386 5.4 -27.0°
Drops below altitude 10° 11:47:15 10° 176° (S) 2,377 7.5 -26.7°
Sets 11:49:57 0° 164° (SSE) 3,313 8.6 -26.5°
